Dewpoint
59 59 59 59 59 58 58 59 59 61 63 64 63 65 66 65 65 65 64 64 63 63 62 62 62 62 62 63 63 62 61 53 52 49 49 47 55 63 63 63 61 62 64 50 44 42 41 44 45 46 48 43 52 50 49 44 38 39 33 31 31 30 30 26 24 23 24 21 20 25 30 32 31 31 32 34 35 33 42 37 47 51 49 52 53 53 58 60
58 58 59 59 58 58 58 57 57 58 62 63 63 64 65 65 65 65 64 64 63 63 62 62 61 61 62 63 63 62 57 53 50 48 48 58 64 62 62 64 61 60 61 45 40 37 40 43 46 47 46 44 53 46 48 43 41 33 32 31 30 32 27 25 22 22 21 22 21 21 27 30 31 30 32 31 30 32 34 35 43 43 47 51 52 54 59 59
58 58 58 58 58 58 58 57 57 57 59 63 63 64 65 65 64 64 64 64 63 63 63 62 62 62 62 63 63 61 54 53 49 46 46 61 65 63 64 64 62 62 54 43 40 37 40 44 47 49 49 45 47 44 45 43 38 35 32 30 31 29 25 24 23 23 23 22 21 21 23 26 30 30 35 30 28 30 30 29 37 38 43 49 52 53 59 59
58 57 58 58 58 58 58 57 57 58 57 60 62 63 63 64 64 64 64 64 64 63 63 63 62 62 62 62 62 59 53 51 47 47 47 63 65 63 63 64 62 61 52 49 40 38 42 46 48 49 50 48 48 47 42 41 39 35 33 30 30 25 25 23 23 21 21 22 22 21 22 22 25 27 32 30 28 28 29 27 28 35 35 49 53 54 58 58
57 57 57 57 58 58 57 57 57 56 56 57 61 63 63 64 64 64 64 64 64 63 63 63 62 62 62 62 61 57 52 45 45 46 48 65 65 64 64 63 62 52 53 50 48 43 43 42 44 47 46 45 48 45 42 40 39 37 35 28 26 25 24 22 21 20 20 20 21 22 21 22 24 24 27 28 26 23 24 25 23 24 26 51 53 55 58 58
56 57 57 57 57 57 57 57 56 56 56 57 58 60 63 64 64 64 64 63 63 63 63 62 62 62 62 62 60 57 48 40 46 47 60 63 65 64 64 62 60 52 49 45 48 50 43 43 44 44 41 44 44 43 43 39 36 36 36 32 28 24 21 21 20 21 20 20 20 20 22 22 22 21 24 25 26 25 29 30 30 32 35 52 53 56 57 58
57 57 57 57 57 57 57 57 56 56 54 53 56 57 62 63 63 63 63 63 63 63 62 62 62 62 61 61 58 55 47 48 44 59 61 63 63 62 63 61 59 56 47 43 46 47 42 43 41 41 44 42 44 43 40 37 36 38 39 36 32 25 25 22 20 21 20 19 21 21 22 21 21 21 22 24 25 26 30 29 29 40 46 52 53 57 57 58
56 57 57 58 57 57 57 57 56 55 55 54 54 56 59 63 63 63 63 63 63 62 62 62 61 61 61 58 54 50 46 43 54 57 63 62 60 60 59 52 48 50 43 44 44 44 43 43 43 40 43 42 44 45 40 38 37 39 39 32 30 27 26 25 25 21 20 20 21 21 23 22 21 21 23 23 24 24 31 31 31 41 50 50 52 54 55 57
56 57 57 58 58 58 58 57 56 55 55 54 54 56 56 63 62 63 62 62 62 62 61 61 61 61 60 55 49 45 43 48 50 58 59 57 54 55 53 46 46 47 46 45 43 43 44 44 41 43 46 43 48 44 38 39 39 39 40 36 25 29 30 27 30 31 21 21 21 25 28 25 22 23 22 22 22 23 29 34 37 39 47 47 49 52 54 56
56 57 57 58 57 57 57 57 56 56 57 56 56 57 57 61 62 62 62 62 62 61 61 61 61 61 58 51 47 42 48 53 55 56 55 53 52 51 46 45 45 45 53 53 43 43 44 42 42 45 45 48 46 44 41 39 34 40 39 32 33 35 34 30 34 36 23 29 25 31 34 29 22 22 18 22 27 24 32 33 38 37 40 43 47 51 53 55
56 57 57 57 56 56 56 57 56 57 57 57 57 58 57 58 62 62 62 62 61 61 61 61 61 59 55 49 44 42 55 57 53 54 51 51 48 45 43 46 47 49 50 46 42 43 44 44 46 47 45 43 46 43 42 41 34 32 35 36 38 38 37 36 33 38 36 37 32 28 29 29 22 22 20 20 28 29 29 31 39 37 37 40 45 49 53 53
57 57 57 56 56 56 56 57 57 57 57 57 57 56 57 57 62 62 61 61 61 61 61 61 60 57 50 46 43 47 54 54 53 54 49 47 43 43 45 45 46 48 45 43 43 46 43 47 49 43 41 46 43 43 43 42 39 34 35 37 38 36 35 36 32 34 34 35 26 29 30 32 26 21 22 23 31 30 29 35 39 37 36 40 44 50 53 53
56 56 57 56 57 57 57 58 57 58 58 57 56 56 56 56 59 61 61 61 61 61 60 60 59 53 47 45 44 54 56 54 53 54 50 47 45 42 43 46 43 41 41 42 46 50 48 49 46 46 47 44 43 41 43 43 40 40 40 39 37 36 37 38 34 28 29 35 25 31 33 30 26 24 22 28 30 29 29 33 36 38 37 41 44 49 52 52
56 56 57 57 57 56 55 55 54 57 58 57 56 56 55 55 56 62 61 61 61 61 60 61 57 50 46 44 53 55 59 57 55 51 47 43 42 49 50 52 49 47 48 46 50 52 51 48 47 44 43 42 40 43 41 40 42 40 39 38 39 38 37 27 33 33 32 28 26 34 34 32 27 20 22 28 29 28 25 27 32 35 38 42 47 48 49 52
56 56 56 56 56 56 55 56 58 58 58 57 56 56 56 55 56 61 61 60 61 61 60 60 56 50 45 45 53 59 62 57 50 48 47 46 46 48 48 49 49 48 48 48 49 48 47 46 45 43 40 39 40 38 38 39 40 39 38 38 39 38 35 29 32 27 31 21 25 33 36 34 32 22 24 29 29 27 23 23 25 30 36 39 44 47 47 49
56 55 56 57 56 56 56 57 58 58 57 57 56 56 55 56 56 60 61 61 61 60 61 57 55 47 44 45 51 61 57 53 47 47 47 46 48 45 48 49 48 47 47 45 46 46 46 47 43 39 37 37 38 37 36 38 38 38 38 39 38 38 38 36 30 28 28 20 24 32 35 19 26 27 18 19 22 26 24 21 22 26 33 37 41 45 46 47
55 55 55 55 56 56 56 56 57 57 57 56 56 56 56 56 55 60 61 61 60 60 58 55 54 49 42 55 57 52 51 53 50 47 46 47 47 48 48 48 45 44 44 44 44 45 43 41 39 43 39 39 40 39 36 37 36 36 38 37 39 36 36 34 24 21 28 24 21 24 30 30 22 17 18 21 24 27 26 23 21 22 30 35 41 43 45 46
55 55 54 54 54 55 54 56 57 57 57 56 56 56 56 56 55 59 60 60 60 59 57 60 54 52 48 53 48 48 52 53 48 45 47 47 47 48 48 47 45 44 44 42 43 42 40 39 39 41 38 39 39 38 37 36 38 36 37 37 36 35 34 34 33 24 23 23 23 24 23 24 24 25 24 21 23 23 22 22 21 21 24 30 37 39 43 45
55 55 54 54 54 52 53 54 57 57 56 57 56 56 55 54 56 53 58 57 54 51 48 49 50 42 40 48 48 49 51 54 50 47 46 47 47 48 49 47 46 45 43 42 42 41 39 41 41 40 39 38 38 38 38 39 39 38 37 37 37 35 34 32 33 21 26 23 25 25 23 22 22 23 24 24 22 21 19 19 20 21 23 25 31 38 39 43
55 56 55 55 55 54 53 53 56 56 56 55 55 54 52 48 48 48 54 55 51 48 48 50 50 47 49 49 47 51 55 54 47 47 48 48 47 46 46 45 48 46 43 43 41 41 42 41 40 39 40 38 38 39 40 40 40 39 38 37 36 36 35 32 32 24 23 25 25 27 27 25 24 23 24 24 22 23 21 20 21 23 24 24 25 27 36 40
55 55 56 55 55 55 54 54 55 56 56 54 53 49 44 44 39 38 45 51 50 50 49 50 49 48 48 49 50 52 51 51 49 49 47 49 47 44 44 45 44 44 44 43 40 40 41 41 41 40 40 39 39 39 39 40 39 38 37 37 36 37 34 32 29 22 21 28 31 32 30 30 26 24 23 23 22 21 20 21 21 21 21 24 28 30 33 35
54 54 55 54 55 54 55 56 57 55 54 54 52 49 48 48 49 49 48 46 50 51 50 50 50 49 50 49 53 51 50 48 49 49 50 48 45 44 44 44 43 42 43 41 39 40 41 41 41 41 40 40 40 40 40 40 39 38 36 36 36 35 37 25 22 21 20 22 26 29 25 25 25 25 25 24 23 22 20 20 20 19 22 22 24 29 31 35
53 53 54 54 55 54 53 55 55 54 53 51 49 49 48 51 53 53 48 45 48 52 51 49 47 49 50 53 52 51 47 46 45 47 45 47 46 44 44 42 42 42 42 39 38 39 39 41 42 41 41 40 40 40 40 40 39 38 38 36 35 37 34 33 29 23 21 26 25 20 18 19 21 23 24 24 25 25 23 21 21 22 22 22 22 25 28 30
53 53 53 53 55 55 55 55 53 53 51 50 49 50 53 53 51 48 44 36 43 49 51 49 47 50 51 50 52 49 46 46 47 45 47 47 44 45 43 42 42 42 41 39 39 39 39 40 42 41 41 40 39 39 39 38 37 41 40 38 36 35 33 34 25 24 21 21 21 23 27 28 29 29 28 25 25 25 24 23 22 25 29 29 33 39 34 26
53 53 53 53 54 55 55 53 50 50 51 50 50 53 53 52 49 48 44 39 39 45 53 50 51 51 52 54 52 47 47 49 47 48 47 46 45 44 43 43 42 42 39 39 40 40 39 40 41 40 40 40 40 38 39 39 38 38 40 39 37 36 33 32 25 23 26 24 23 23 24 28 30 30 30 30 28 27 26 26 23 23 26 29 28 31 34 38
53 53 53 54 54 55 53 48 48 50 48 46 50 53 52 51 51 50 44 33 32 43 49 44 53 48 54 51 52 50 49 46 50 48 47 46 47 44 43 42 42 40 39 39 39 41 39 40 41 40 40 40 39 37 39 39 38 37 36 39 37 37 34 32 33 35 33 31 23 20 25 26 27 26 27 29 29 29 28 25 23 24 23 25 29 29 29 31
53 54 54 54 54 53 49 45 51 47 44 45 51 53 51 51 51 48 40 30 30 41 42 49 47 50 52 50 49 48 41 43 50 49 46 50 46 47 43 43 42 42 40 40 41 40 36 38 40 41 39 39 39 38 39 39 38 37 40 38 38 37 36 34 34 34 34 31 31 24 23 21 24 25 26 24 23 26 27 23 23 22 21 21 24 27 30 31
52 53 53 54 53 50 49 51 47 43 44 48 53 52 51 50 50 48 38 26 24 46 43 45 47 56 51 50 49 45 45 46 44 46 47 48 48 46 44 42 41 41 40 41 37 37 38 39 40 40 40 39 38 39 40 39 38 38 39 38 38 37 36 37 35 35 33 32 31 27 27 24 25 26 23 24 23 22 23 22 23 22 23 22 24 25 30 32
51 52 53 52 53 53 52 48 48 46 52 53 53 52 51 50 48 38 28 22 40 43 53 43 55 51 50 50 48 48 46 46 43 45 49 46 44 44 44 43 42 41 41 41 40 38 38 40 39 40 39 38 40 39 40 39 38 37 39 39 38 37 36 35 35 36 35 28 30 33 26 26 26 29 28 25 23 24 24 25 24 23 22 24 24 25 26 28
52 52 52 52 51 52 51 51 50 52 53 53 52 51 49 47 42 32 27 20 42 34 44 46 47 45 48 46 46 46 44 44 44 46 46 47 41 41 41 44 42 41 39 37 39 37 35 36 39 40 39 40 39 40 40 38 37 37 38 36 36 37 37 35 37 32 31 29 30 33 29 25 25 29 27 29 28 23 23 25 26 28 28 24 25 26 30 27
51 52 52 51 49 49 50 46 51 52 53 52 51 50 47 42 32 26 22 28 40 38 46 45 43 49 45 43 41 45 43 43 43 43 42 39 39 41 41 45 46 42 41 36 35 34 36 37 39 41 36 40 39 38 38 39 38 38 38 36 35 34 34 33 31 31 31 30 29 32 32 25 26 28 29 27 21 24 25 25 25 26 27 28 26 28 27 28
50 51 51 51 51 51 46 45 51 54 52 52 49 45 41 29 33 27 23 43 31 34 36 40 45 46 44 44 42 44 42 42 42 42 38 38 39 39 40 38 42 36 36 37 34 36 36 37 39 37 37 37 39 37 37 37 38 37 36 35 33 29 30 29 29 28 29 30 23 21 29 26 24 27 26 24 23 22 22 22 23 23 23 26 27 35 33 33
48 48 49 49 50 49 50 50 53 53 51 50 46 43 33 28 21 28 32 34 29 40 35 42 44 44 44 42 42 43 43 41 42 40 39 39 38 39 41 39 42 40 34 38 32 33 34 37 34 37 37 36 39 36 33 31 32 34 34 34 33 27 29 28 28 28 28 29 20 20 24 23 24 24 25 24 25 25 24 24 25 25 26 24 25 27 26 34
46 47 45 48 49 49 50 51 51 53 49 48 44 37 33 26 25 36 32 33 35 40 40 40 44 44 43 40 42 42 41 42 42 39 39 37 38 38 42 42 40 38 39 35 32 32 30 31 34 35 34 37 38 39 36 34 30 34 38 35 33 29 29 28 28 27 27 26 20 25 27 27 22 20 19 18 19 21 20 18 22 26 28 29 30 31 29 32
46 45 45 45 46 48 50 51 51 51 47 44 38 32 26 25 33 30 32 33 35 38 39 42 42 42 41 41 43 42 40 39 42 39 38 37 36 38 39 38 40 39 38 35 35 33 34 32 34 37 37 37 38 41 36 33 34 35 37 38 34 32 32 26 24 26 26 22 22 23 25 26 26 22 22 20 20 20 19 20 22 22 23 28 30 31 30 29
42 43 43 42 44 45 48 51 52 52 45 41 33 29 26 29 29 34 32 39 38 36 38 40 41 40 39 39 42 40 43 39 41 39 37 38 38 38 39 39 39 38 37 36 35 33 34 31 34 34 34 37 38 40 35 37 33 34 34 32 34 32 33 28 26 25 26 25 25 24 22 25 23 24 24 21 18 18 18 18 19 20 21 24 28 32 31 33
39 40 40 42 42 44 45 50 50 49 45 39 31 26 32 31 35 37 39 38 39 40 38 32 35 37 35 34 38 39 40 41 40 38 36 38 37 39 38 39 40 39 38 37 35 37 34 29 32 33 32 36 33 36 37 38 36 34 31 33 34 32 32 27 26 23 24 24 26 23 24 23 23 24 26 22 21 19 19 18 17 20 23 24 30 35 36 37
36 38 39 40 43 43 46 49 49 48 43 35 30 32 35 33 38 39 41 41 41 41 38 35 36 39 33 34 35 39 40 38 38 39 37 37 36 40 38 38 39 39 38 37 34 35 34 26 28 30 33 34 35 36 35 39 37 33 33 38 31 28 28 27 26 23 22 24 25 22 19 21 23 25 18 21 23 23 22 23 21 19 21 24 25 27 30 37
36 31 31 39 42 44 45 49 48 43 38 31 30 31 33 35 39 38 40 41 42 40 37 37 34 34 36 35 37 40 39 36 39 37 35 37 35 38 38 38 38 38 38 37 34 34 35 28 27 30 32 33 33 34 31 33 34 34 32 31 35 29 30 28 27 28 24 24 25 26 19 21 26 23 23 14 15 18 16 19 20 21 21 20 22 27 30 36
31 26 33 40 40 43 46 48 45 40 36 29 30 31 38 34 37 39 42 42 41 41 39 38 37 34 34 36 38 37 41 39 39 37 37 38 36 38 37 39 37 38 37 36 35 35 32 30 25 27 32 32 29 32 32 33 30 29 29 28 30 31 28 25 30 27 24 24 23 23 23 23 27 23 24 19 13 15 16 19 24 24 24 24 25 29 33 33
32 25 33 42 43 45 47 43 38 35 32 32 32 33 35 34 37 38 39 39 41 43 42 40 39 35 35 35 37 41 40 39 39 36 37 37 36 35 39 38 38 37 37 36 36 34 30 28 26 26 27 29 30 33 37 34 32 30 29 29 29 28 25 26 26 29 26 22 23 22 22 26 23 20 22 22 21 22 23 24 25 25 24 25 29 31 32 35
30 27 31 41 43 46 41 35 35 34 33 30 27 32 33 37 36 38 38 40 38 40 42 41 41 38 37 36 38 39 41 40 39 38 37 36 37 37 38 38 38 37 34 33 32 37 32 31 27 26 27 29 31 31 35 31 36 33 30 30 30 29 28 26 25 26 23 22 24 23 20 23 22 19 20 20 20 17 23 24 23 23 26 24 29 33 33 34
26 32 39 42 44 44 36 32 32 34 31 31 33 33 35 36 34 37 37 39 36 38 38 39 38 38 38 38 37 40 41 38 39 38 37 38 36 37 39 37 38 38 36 33 33 30 34 29 27 25 27 28 28 31 32 33 33 33 32 33 32 29 29 28 27 22 24 23 22 23 22 23 24 23 20 18 23 26 24 20 22 22 22 24 25 32 32 35
33 33 35 42 43 43 31 26 27 30 31 32 33 32 34 35 35 36 35 38 37 37 36 37 38 41 38 40 39 37 42 36 39 39 37 38 36 38 39 39 38 36 35 32 32 33 31 28 28 24 24 24 25 26 27 32 31 29 30 31 33 33 32 30 25 23 22 25 25 24 23 25 28 25 25 21 18 18 15 18 20 23 25 30 26 29 34 36
31 34 35 39 42 41 32 27 27 28 30 30 29 29 31 31 35 36 35 36 38 38 37 36 37 42 40 43 39 39 41 41 35 40 41 39 37 40 40 38 37 35 36 39 37 36 33 30 28 24 22 21 21 21 22 24 26 28 30 31 32 32 31 26 24 24 22 25 27 23 23 26 20 20 18 18 19 16 16 17 16 25 27 29 33 35 32 36
29 26 33 37 40 40 38 38 32 29 27 29 28 29 30 29 30 35 36 35 37 38 39 40 42 40 39 40 38 37 37 41 40 37 39 36 34 38 40 39 38 38 38 37 36 34 30 32 30 28 25 24 25 28 29 29 28 27 28 30 31 32 31 30 28 26 24 25 24 25 25 25 18 17 17 18 19 15 13 17 16 21 23 29 31 35 36 37
28 28 29 28 35 36 35 34 33 29 27 29 24 28 28 29 29 30 37 32 38 36 37 36 35 36 38 38 36 35 37 38 39 40 38 35 35 38 40 40 38 39 37 35 35 33 30 28 31 31 30 28 28 30 29 29 27 28 28 28 31 30 31 30 27 26 28 27 24 27 27 27 25 16 17 17 17 16 15 15 14 19 26 33 35 35 34 30
25 28 31 31 29 28 30 32 33 30 30 28 24 29 26 27 28 27 35 32 38 37 35 37 35 36 37 38 37 34 35 34 35 36 37 35 36 38 37 40 38 37 34 34 36 32 30 29 31 31 31 31 33 30 29 28 28 28 29 29 29 30 30 29 29 30 31 27 26 29 30 28 26 19 17 17 16 14 14 14 14 21 27 29 29 28 30 30
29 29 29 32 28 30 30 31 33 32 30 28 25 28 26 27 26 27 32 33 35 36 33 32 34 34 35 37 39 37 37 32 32 37 34 33 35 36 35 37 40 36 34 38 33 32 30 30 32 31 31 31 31 31 30 28 27 28 29 28 28 29 29 30 30 30 30 29 29 29 31 29 27 24 19 16 19 17 16 22 20 21 21 26 26 27 29 30
30 28 28 30 31 28 30 31 32 32 28 30 26 26 26 26 25 27 30 33 32 32 35 30 32 35 35 35 36 36 38 38 37 35 38 35 34 36 35 36 34 33 34 33 32 32 32 30 33 31 29 30 30 32 31 29 29 28 29 29 29 30 30 30 30 30 31 30 30 30 30 30 29 27 25 21 19 28 21 16 12 19 24 26 29 29 30 28
31 34 33 28 28 28 29 31 29 29 26 27 26 27 27 27 26 27 28 33 32 32 34 31 31 33 36 35 35 34 37 40 40 40 39 36 34 37 34 35 34 32 34 32 32 33 34 31 33 30 28 28 29 29 32 32 30 28 28 29 28 28 28 29 28 30 30 29 29 30 29 28 28 28 26 24 23 22 19 20 20 21 19 20 23 23 24 26
36 37 36 32 25 27 27 29 29 28 25 26 28 28 28 27 28 28 26 32 33 34 35 34 33 31 35 35 34 34 36 39 42 44 42 38 44 40 40 36 35 33 32 31 32 31 32 29 30 29 27 27 27 29 29 28 27 27 28 28 28 28 28 29 29 31 30 29 29 28 27 29 27 28 26 24 21 19 19 18 21 25 28 26 27 28 29 29